Location: Heidgraben
(53.7081°N, 9.6576°E)
Time: 00:00:54
(UTC+00:00)

TSX-5 - Pass Details

Date: 05 July 2020
Orbit: 404 x 1328 km, 68.9° (Epoch: 03 August)

Event Time Altitude Azimuth Distance (km) Brightness Sun altitude
Rises 21:29:18 0° 322° (NW) 2,382 9.1 -9.6°
Reaches altitude 10° 21:31:14 10° 320° (NW) 1,560 7.6 -9.7°
Maximum altitude 21:34:35 69° 236° (WSW) 526 3.7 -9.9°
Enters shadow 21:37:52 14° 155° (SSE) 1,556 5.4 -10.1°
